TimeCDT,TemperatureF,Dew PointF,Humidity,Sea Level PressureIn,VisibilityMPH,Wind Direction,Wind SpeedMPH,Gust SpeedMPH,PrecipitationIn,Events,Conditions,WindDirDegrees,DateUTC
12:58 AM,61.0,50.0,67,30.18,10.0,NNE,5.8,-,N/A,,Clear,30,2013-05-25 05:58:00
1:58 AM,60.1,48.9,67,30.18,10.0,NE,4.6,-,N/A,,Clear,40,2013-05-25 06:58:00
2:58 AM,55.0,48.9,80,30.18,10.0,NNE,3.5,-,N/A,,Clear,20,2013-05-25 07:58:00
3:58 AM,54.0,46.9,77,30.19,10.0,NNE,4.6,-,N/A,,Clear,20,2013-05-25 08:58:00
4:58 AM,53.1,46.0,77,30.21,10.0,NNE,4.6,-,N/A,,Clear,20,2013-05-25 09:58:00
5:58 AM,50.0,46.0,86,30.24,10.0,North,3.5,-,N/A,,Clear,10,2013-05-25 10:58:00
6:58 AM,57.9,48.0,70,30.25,10.0,NNE,5.8,-,N/A,,Clear,30,2013-05-25 11:58:00
7:58 AM,66.0,48.9,54,30.26,10.0,ENE,6.9,-,N/A,,Clear,70,2013-05-25 12:58:00
8:58 AM,71.1,48.9,45,30.27,10.0,East,6.9,-,N/A,,Clear,90,2013-05-25 13:58:00
9:58 AM,77.0,50.0,39,30.27,10.0,ENE,8.1,-,N/A,,Clear,70,2013-05-25 14:58:00
10:58 AM,79.0,46.0,31,30.27,10.0,East,5.8,-,N/A,,Clear,80,2013-05-25 15:58:00
11:58 AM,81.0,46.9,30,30.25,10.0,South,9.2,-,N/A,,Clear,190,2013-05-25 16:58:00
12:58 PM,84.0,48.0,28,30.23,10.0,East,6.9,-,N/A,,Clear,80,2013-05-25 17:58:00
1:58 PM,84.0,46.0,26,30.20,10.0,Variable,4.6,-,N/A,,Clear,0,2013-05-25 18:58:00
2:58 PM,87.1,46.9,25,30.19,10.0,NE,8.1,-,N/A,,Clear,40,2013-05-25 19:58:00
3:58 PM,87.1,46.0,24,30.18,10.0,Variable,3.5,-,N/A,,Clear,0,2013-05-25 20:58:00
4:58 PM,84.9,48.0,28,30.18,10.0,East,3.5,-,N/A,,Clear,90,2013-05-25 21:58:00
5:58 PM,86.0,52.0,31,30.17,10.0,ENE,4.6,-,N/A,,Clear,70,2013-05-25 22:58:00
6:58 PM,80.1,55.0,42,30.17,10.0,NE,3.5,-,N/A,,Clear,50,2013-05-25 23:58:00
7:58 PM,72.0,57.0,59,30.17,10.0,Calm,Calm,-,N/A,,Clear,0,2013-05-26 00:58:00
8:58 PM,66.9,57.9,73,30.18,10.0,SSW,10.4,-,N/A,,Clear,210,2013-05-26 01:58:00
9:58 PM,66.9,55.9,68,30.20,10.0,Calm,Calm,-,N/A,,Clear,0,2013-05-26 02:58:00
10:58 PM,63.0,55.0,75,30.20,10.0,Calm,Calm,-,N/A,,Clear,0,2013-05-26 03:58:00
11:58 PM,61.0,53.1,75,30.19,10.0,Calm,Calm,-,N/A,,Clear,0,2013-05-26 04:58:00